User: anonymous   Login
Location: Hohe Wand Kleine Kanzel
(47.8330°N, 16.0170°E)
Time: 10:55:59
(UTC+02:00)
Language:

S-56A Canister/Altair - Orbit

View from above orbital plane
View from above orbital plane
View from above satellite
View from above satellite

Ground track
Ground track

The orbit data is extracted from the following two-line orbital elements,

1 00082U 61004B   21211.90932352 -.00000118  00000-0 -70346-4 0  9997
2 00082  38.8643 125.9207 1176577 254.9024  91.8758 12.26028893857942
Epoch (UTC): 30 July 2021 21:49:25
Eccentricity: 0.1176577
inclination: 38.8643°
perigee height: 631 km
apogee height: 2501 km
right ascension of ascending node: 125.9207°
argument of perigee: 254.9024°
revolutions per day: 12.26028893
mean anomaly at epoch: 91.8758°
orbit number at epoch: 85794

The dashed part of the orbit path shows where the satellite is in the earth's shadow,  

DLR